| time (UTC) | temp F | wind direction | speed MPH | gust MPH | rain 1hr in | rain 24hr in | rain mn in | humidity % | barometer mb |
| 20260507090030 | 67 | 225 | 0.0 | 1.0 | 0.00 | 0.24 | 0.00 | 64 | 1010.3 |
| 20260507084532 | 67 | 283 | 0.0 | 0.0 | 0.00 | 0.24 | 0.00 | 66 | 1010.3 |
| 20260507083029 | 67 | 253 | 0.0 | 0.0 | 0.00 | 0.24 | 0.00 | 63 | 1010.2 |
| 20260507081526 | 65 | 207 | 0.0 | 0.0 | 0.00 | 0.24 | 0.00 | 70 | 1010.2 |
| 20260507080024 | 66 | 175 | 0.0 | 0.0 | 0.00 | 0.24 | 0.00 | 71 | 1010.2 |
| 20260507074524 | 65 | 178 | 0.0 | 0.0 | 0.00 | 0.24 | 0.00 | 69 | 1010.1 |
| 20260507073020 | 64 | 249 | 0.0 | 0.0 | 0.00 | 0.24 | 0.00 | 71 | 1010.0 |
| 20260507071520 | 63 | 242 | 0.0 | 0.0 | 0.00 | 0.24 | 0.00 | 70 | 1010.0 |
| 20260507070014 | 62 | 254 | 0.0 | 0.0 | 0.00 | 0.25 | 0.00 | 73 | 1009.9 |
| 20260507064513 | 61 | 321 | 0.0 | 0.0 | 0.00 | 0.25 | 0.00 | 74 | 1009.9 |
| 20260507063025 | 61 | 319 | 0.0 | 0.0 | 0.00 | 0.25 | 0.00 | 75 | 1009.8 |
| 20260507061511 | 62 | 307 | 0.0 | 0.0 | 0.00 | 0.25 | 0.00 | 75 | 1009.8 |
| 20260507060012 | 61 | 313 | 0.0 | 0.0 | 0.00 | 0.32 | 0.00 | 78 | 1009.8 |
| 20260507054503 | 59 | 312 | 0.0 | 0.0 | 0.00 | 0.32 | 0.00 | 82 | 1009.7 |
| 20260507053101 | 57 | 312 | 0.0 | 0.0 | 0.00 | 0.32 | 0.00 | 86 | 1009.6 |
| 20260507051602 | 56 | 311 | 0.0 | 0.0 | 0.00 | 0.32 | 0.00 | 88 | 1009.3 |
| 20260507050101 | 55 | 311 | 0.0 | 0.0 | 0.00 | 0.33 | 0.00 | 90 | 1009.3 |
| 20260507044555 | 54 | 311 | 0.0 | 0.0 | 0.00 | 0.33 | 0.00 | 90 | 1009.0 |
| 20260507043054 | 54 | 312 | 0.0 | 0.0 | 0.00 | 0.33 | 0.00 | 91 | 1008.9 |
| 20260507041552 | 53 | 331 | 0.0 | 0.0 | 0.00 | 0.33 | 0.00 | 90 | 1008.6 |
| 20260507040049 | 54 | 333 | 0.0 | 0.0 | 0.00 | 0.33 | 0.00 | 90 | 1008.6 |
| 20260507034547 | 55 | 52 | 0.0 | 0.0 | 0.00 | 0.33 | 0.00 | 90 | 1008.4 |
| 20260507033047 | 56 | 52 | 0.0 | 0.0 | 0.00 | 0.33 | 0.00 | 90 | 1008.4 |
| 20260507031546 | 57 | 52 | 0.0 | 0.0 | 0.00 | 0.33 | 0.00 | 91 | 1008.5 |
| 20260507030045 | 58 | 52 | 0.0 | 0.0 | 0.00 | 0.33 | 0.00 | 91 | 1008.5 |
| 20260507024544 | 57 | 52 | 0.0 | 0.0 | 0.00 | 0.33 | 0.00 | 91 | 1008.4 |
| 20260507023043 | 57 | 46 | 0.0 | 0.0 | 0.00 | 0.33 | 0.00 | 90 | 1008.3 |
| 20260507021544 | 57 | 75 | 0.0 | 0.0 | 0.00 | 0.33 | 0.00 | 90 | 1008.3 |
| 20260507020045 | 57 | 69 | 0.0 | 0.0 | 0.00 | 0.33 | 0.00 | 91 | 1008.4 |
| 20260507014550 | 57 | 69 | 0.0 | 0.0 | 0.00 | 0.33 | 0.00 | 92 | 1008.6 |
| 20260507013050 | 56 | 69 | 0.0 | 0.0 | 0.00 | 0.33 | 0.00 | 92 | 1008.6 |
| 20260507011540 | 56 | 69 | 0.0 | 0.0 | 0.00 | 0.33 | 0.00 | 92 | 1008.4 |
| 20260507010052 | 56 | 69 | 0.0 | 0.0 | 0.00 | 0.33 | 0.00 | 92 | 1008.5 |
| 20260507004539 | 55 | 80 | 0.0 | 0.0 | 0.00 | 0.33 | 0.00 | 92 | 1008.4 |
| 20260507003039 | 55 | 80 | 0.0 | 0.0 | 0.00 | 0.33 | 0.00 | 92 | 1008.3 |
| 20260507001538 | 55 | 80 | 0.0 | 0.0 | 0.00 | 0.33 | 0.00 | 91 | 1008.3 |
| 20260507000036 | 55 | 80 | 0.0 | 0.0 | 0.00 | 0.33 | 0.00 | 91 | 1008.3 |
| 20260506234537 | 56 | 80 | 0.0 | 0.0 | 0.00 | 0.33 | 0.00 | 90 | 1008.3 |
| 20260506233053 | 56 | 80 | 0.0 | 0.0 | 0.00 | 0.33 | 0.00 | 90 | 1008.4 |
| 20260506231536 | 56 | 80 | 0.0 | 0.0 | 0.00 | 0.33 | 0.00 | 89 | 1008.5 |
| 20260506230030 | 57 | 80 | 0.0 | 0.0 | 0.00 | 0.33 | 0.00 | 89 | 1008.4 |
| 20260506224530 | 57 | 80 | 0.0 | 0.0 | 0.00 | 0.33 | 0.00 | 89 | 1008.2 |
| 20260506223028 | 57 | 80 | 0.0 | 0.0 | 0.00 | 0.33 | 0.00 | 89 | 1008.3 |
| 20260506221526 | 57 | 80 | 0.0 | 0.0 | 0.00 | 0.33 | 0.00 | 89 | 1008.4 |
| 20260506220028 | 58 | 80 | 0.0 | 0.0 | 0.00 | 0.33 | 0.33 | 88 | 1008.3 |
| 20260506214517 | 58 | 80 | 0.0 | 0.0 | 0.00 | 0.33 | 0.33 | 88 | 1008.4 |
| 20260506213013 | 58 | 80 | 0.0 | 0.0 | 0.00 | 0.33 | 0.33 | 88 | 1008.3 |
| 20260506211513 | 59 | 80 | 0.0 | 0.0 | 0.00 | 0.33 | 0.33 | 88 | 1008.3 |
| 20260506210011 | 59 | 80 | 0.0 | 0.0 | 0.00 | 0.33 | 0.33 | 88 | 1008.3 |
| 20260506204601 | 59 | 80 | 0.0 | 0.0 | 0.00 | 0.33 | 0.33 | 88 | 1008.2 |
| 20260506203056 | 58 | 80 | 0.0 | 0.0 | 0.00 | 0.33 | 0.33 | 88 | 1008.2 |
| 20260506201552 | 59 | 80 | 0.0 | 0.0 | 0.00 | 0.33 | 0.33 | 87 | 1008.1 |
| 20260506200049 | 59 | 80 | 0.0 | 0.0 | 0.00 | 0.33 | 0.33 | 87 | 1008.0 |
| 20260506194548 | 59 | 80 | 0.0 | 0.0 | 0.00 | 0.33 | 0.33 | 87 | 1007.8 |
| 20260506193038 | 59 | 82 | 0.0 | 0.0 | 0.00 | 0.33 | 0.33 | 88 | 1007.7 |
| 20260506191534 | 59 | 84 | 0.0 | 0.0 | 0.00 | 0.33 | 0.33 | 88 | 1007.7 |
| 20260506190030 | 59 | 83 | 0.0 | 0.0 | 0.00 | 0.34 | 0.33 | 87 | 1007.6 |
| 20260506184526 | 59 | 83 | 0.0 | 0.0 | 0.00 | 0.34 | 0.33 | 87 | 1007.3 |
| 20260506183021 | 60 | 82 | 0.0 | 0.0 | 0.00 | 0.34 | 0.33 | 87 | 1007.4 |
| 20260506181519 | 60 | 82 | 0.0 | 0.0 | 0.00 | 0.34 | 0.33 | 87 | 1007.3 |
| 20260506180017 | 60 | 69 | 0.0 | 0.0 | 0.00 | 0.36 | 0.33 | 87 | 1007.2 |
| 20260506174509 | 61 | 69 | 0.0 | 0.0 | 0.00 | 0.36 | 0.33 | 87 | 1007.1 |
| 20260506173004 | 60 | 73 | 0.0 | 0.0 | 0.00 | 0.36 | 0.33 | 86 | 1007.1 |
| 20260506171610 | 61 | 76 | 0.0 | 3.0 | 0.00 | 0.36 | 0.33 | 86 | 1007.0 |
| 20260506164610 | 61 | 74 | 0.0 | 0.0 | 0.00 | 0.38 | 0.33 | 87 | 1006.9 |
| 20260506163047 | 62 | 61 | 0.0 | 1.0 | 0.00 | 0.38 | 0.33 | 86 | 1007.0 |
| 20260506161542 | 62 | 80 | 0.0 | 1.0 | 0.00 | 0.38 | 0.33 | 87 | 1007.1 |
| 20260506160046 | 62 | 71 | 0.0 | 0.0 | 0.00 | 0.42 | 0.33 | 87 | 1007.0 |
| 20260506154542 | 63 | 75 | 0.0 | 0.0 | 0.00 | 0.42 | 0.33 | 86 | 1006.9 |
| 20260506153030 | 63 | 86 | 0.0 | 0.0 | 0.01 | 0.42 | 0.33 | 88 | 1007.0 |
| 20260506151525 | 62 | 67 | 0.0 | 1.0 | 0.07 | 0.42 | 0.33 | 91 | 1007.1 |
| 20260506150020 | 61 | 55 | 0.0 | 0.0 | 0.09 | 0.46 | 0.33 | 91 | 1007.2 |
| 20260506144516 | 60 | 60 | 0.0 | 0.0 | 0.13 | 0.46 | 0.33 | 92 | 1007.1 |
| 20260506143011 | 60 | 43 | 0.0 | 0.0 | 0.18 | 0.44 | 0.31 | 90 | 1006.9 |
| 20260506141507 | 60 | 252 | 0.0 | 0.0 | 0.13 | 0.39 | 0.26 | 90 | 1007.7 |
| 20260506140002 | 61 | 192 | 0.0 | 0.0 | 0.13 | 0.36 | 0.24 | 90 | 1007.6 |
| 20260506134558 | 61 | 169 | 0.0 | 0.0 | 0.10 | 0.33 | 0.20 | 89 | 1007.5 |
| 20260506133103 | 62 | 96 | 0.0 | 0.0 | 0.03 | 0.26 | 0.13 | 87 | 1007.6 |
| 20260506131554 | 62 | 83 | 0.0 | 0.0 | 0.02 | 0.25 | 0.13 | 84 | 1007.7 |
| 20260506130047 | 63 | 73 | 0.0 | 0.0 | 0.00 | 0.24 | 0.10 | 81 | 1007.8 |
| 20260506124545 | 63 | 98 | 0.0 | 0.0 | 0.00 | 0.24 | 0.10 | 81 | 1007.9 |
| 20260506123046 | 63 | 109 | 0.0 | 0.0 | 0.00 | 0.24 | 0.10 | 82 | 1008.0 |
| 20260506121551 | 62 | 181 | 0.0 | 0.0 | 0.00 | 0.24 | 0.10 | 84 | 1008.0 |
| 20260506120106 | 62 | 183 | 0.0 | 0.0 | 0.00 | 0.24 | 0.10 | 84 | 1008.1 |
| 20260506114544 | 61 | 186 | 0.0 | 0.0 | 0.01 | 0.24 | 0.10 | 84 | 1008.2 |
| 20260506113036 | 62 | 177 | 0.0 | 0.0 | 0.01 | 0.24 | 0.10 | 83 | 1008.3 |
| 20260506111533 | 61 | 122 | 0.0 | 0.0 | 0.01 | 0.24 | 0.10 | 87 | 1008.3 |
| 20260506110028 | 61 | 213 | 0.0 | 2.0 | 0.01 | 0.28 | 0.10 | 87 | 1008.5 |
| 20260506104524 | 62 | 289 | 0.0 | 0.0 | 0.00 | 0.27 | 0.09 | 85 | 1008.5 |
| 20260506103028 | 62 | 288 | 0.0 | 0.0 | 0.00 | 0.27 | 0.09 | 83 | 1008.6 |
| 20260506101522 | 62 | 288 | 0.0 | 0.0 | 0.00 | 0.27 | 0.09 | 84 | 1008.7 |
| 20260506100018 | 62 | 288 | 0.0 | 0.0 | 0.00 | 0.28 | 0.09 | 84 | 1008.6 |
| 20260506094527 | 61 | 288 | 0.0 | 0.0 | 0.00 | 0.28 | 0.09 | 87 | 1008.7 |
| 20260506093023 | 60 | 290 | 0.0 | 0.0 | 0.01 | 0.28 | 0.09 | 88 | 1008.8 |
| 20260506091512 | 59 | 300 | 0.0 | 0.0 | 0.01 | 0.28 | 0.09 | 89 | 1008.8 |